Regional Weather Roundup
Issued by NWS Kansas City/Pleasant Hill, MO

Home | Current Version | Previous Version | Text Only | Print | Product List | Glossary On
Versions: 1 2 3 4 5 6 7 8 9 10 11 12 13 14 15 16 17 18 19 20 21 22 23 24 25 26 27 28 29 30 31 32 33 34 35 36 37 38 39 40 41 42 43 44 45 46 47 48 49 50
000
ASUS43 KEAX 020711
RWREAX

WEATHER ROUNDUP FOR EASTERN KANSAS AND NORTHWEST MISSOURI
NATIONAL WEATHER SERVICE KANSAS CITY/PLEASANT HILL MO
200 AM CDT SAT AUG 02 2014

KSZ040-057-103>105-MOZ028-029-037-043-020800-
...KANSAS CITY METROPOLITAN AREA...

CITY           SKY/WX    TMP DP  RH WIND       PRES   REMARKS
K.C. INTL      CLEAR     69  62  78 SE5       30.11S
K.C. DOWNTOWN  CLEAR     71  61  70 E5        30.09F
LEES SUMMIT    CLEAR     70  61  73 E5        30.11S
OLATHE - IXD   CLOUDY    70  62  76 CALM      30.11S
OLATHE - OJC   MOCLDY    69  61  75 SE3       30.10S
LAWRENCE       MOCLDY    67  62  84 CALM      30.10S

$$

MOZ001>008-011>017-020>025-030>033-038>040-044>046-053-054-020800-
...NORTHERN AND CENTRAL MISSOURI...

CITY           SKY/WX    TMP DP  RH WIND       PRES   REMARKS
ST. JOSEPH     CLEAR     63  61  93 NW3       30.11S
MOSBY          MOSUNNY   63  63 100 CALM      30.10S
WARRENSBURG    CLEAR     63  59  88 CALM      30.10S
WHITEMAN AFB   CLEAR     64  53  68 CALM      30.10S
CLINTON        CLEAR     66  63  88 CALM      30.10S
SEDALIA        CLEAR     66  60  81 SE3       30.11S
WARSAW         NOT AVBL
MARSHALL       CLEAR     68  66  94 E3        30.11S
CHILLICOTHE      N/A     64  61  90 N3        30.12S
MOBERLY        CLEAR     63  57  82 SE6       30.12R
KIRKSVILLE     CLEAR     63  60  90 E3        30.12S

$$

MOZ041-047>049-056>058-063>065-088>090-097-020800-
...EASTERN AND SOUTHERN MISSOURI...

CITY           SKY/WX    TMP DP  RH WIND       PRES   REMARKS
ST. LOUIS INTL PTCLDY    66  60  81 N3        30.09F
SPIRIT OF STL  FOG       63  61  94 CALM      30.08S VSB 1/4
COLUMBIA       CLEAR     61  61 100 CALM      30.10F FOG
JEFFERSON CITY CLEAR     65  61  87 CALM      30.09F
MEXICO           N/A    N/A N/A N/A CALM      30.11R FOG
ROLLA          CLEAR     64  61  90 E6        30.09F
LEBANON        CLEAR     66  59  77 CALM      30.11S
OSAGE BEACH      N/A     63  57  82 NE5       30.10S
SPRINGFIELD    CLOUDY    70  64  81 SE3       30.09S
BRANSON        CLEAR     66  64  94 CALM      30.10F
NEVADA         CLEAR     63  61  94 CALM      30.10S
JOPLIN         CLEAR     66  64  93 CALM      30.09S
WEST PLAINS    PTCLDY    64  61  90 CALM      30.11S

$$

IAZ060-094-KSZ022-034>040-054-083-096-NEZ052-066-093-020800-
...KANSAS...SOUTHEAST NEBRASKA AND IOWA...

CITY           SKY/WX    TMP DP  RH WIND       PRES   REMARKS
TOPEKA         CLEAR     69  64  84 E6        30.09S
MANHATTAN      CLEAR     72  64  76 S6        30.07S
EMPORIA        MOCLDY    68  64  87 S6        30.09R
CHANUTE        PTCLDY    65  63  93 CALM      30.09R
WICHITA        PTCLDY    67  64  90 SE6       30.08R
OMAHA          PTCLDY    66  62  87 CALM      30.11F
LINCOLN        CLEAR     62  58  86 N5        30.12F
FALLS CITY     PTCLDY    66  63  90 E5        30.10F
LAMONI         CLEAR     68  62  81 E3        30.12F
DES MOINES     CLEAR     69  60  73 CALM      30.11F

$$



USA.gov is the U.S. government's official web portal to all federal, state and local government web resources and services.